Location: Falniów
(50.3639°N, 19.9642°E)
Time: 23:04:15
(UTC+00:00)

Nadezhda 3 Rocket - Visible Passes

Search period start: 18 April 2026 00:00
Search period end: 28 April 2026 00:00
Orbit: 955 x 999 km, 82.9° (Epoch: 18 April)

Date Brightness Start Highest point End Pass type
(mag) Time Alt. Az. Time Alt. Az. Time Alt. Az.
18 Apr 6.6 19:29:34 10° NW 19:33:03 16° WNW 19:36:31 10° WSW visible
19 Apr 5.0 18:08:22 10° NNW 18:14:17 50° W 18:20:10 10° SSW visible
20 Apr 6.0 18:34:34 10° NNW 18:39:47 30° W 18:45:00 10° SW visible
21 Apr 6.6 19:01:12 10° NW 19:05:08 18° WNW 19:09:02 10° WSW visible
24 Apr 6.6 18:32:54 10° NW 18:37:12 20° W 18:41:29 10° SW visible
25 Apr 7.1 19:00:35 10° NW 19:02:24 11° WNW 19:04:13 10° W visible
